This demonstration page uses our WeatherBlox Daily Observations layout. Learn more.

Left ArrowRight Arrow

38.89511, -77.03637

Hourly Observations for February 25, 2020

Temp ( °F °C ) Dew Point ( °F °C ) Humidity (%) Winds ( mph kmh ) Pressure ( in mb ) Visibility ( mi km ) Precip ( " mm )
12:52 am 00:52 Cloudy 47 8.3 43 6.1 86 86 S 8 13 29.91 1013 10 16 0.00 0.00
1:52 am 01:52 Cloudy 47 8.3 43 6.1 86 86 S 7 11 29.92 1013 10 16 0.00 0.00
2:52 am 02:52 Cloudy 47 8.3 44 6.7 90 90 S 7 11 29.90 1012 10 16 0.00 0.00
3:13 am 03:13 Cloudy 47 8.3 44 6.7 90 90 S 7 11 29.89 1012 10 16 0.00 0.00
3:30 am 03:30 Cloudy 47 8.3 44 6.7 90 90 S 7 11 29.88 1012 10 16 0.00 0.00
3:52 am 03:52 Cloudy 47 8.3 44 6.7 90 90 S 7 11 29.87 1012 10 16 0.00 0.00
4:10 am 04:10 Cloudy 47 8.3 44 6.7 90 90 S 6 9 29.87 1012 10 16 0.00 0.00
4:52 am 04:52 Cloudy with Drizzle 46 7.8 45 7.2 96 96 S 8 13 29.87 1011 8 13 0.00 0.00
5:20 am 05:20 Cloudy with Drizzle 46 7.8 45 7.2 96 96 S 8 13 29.87 1012 5 8 0.00 0.00
5:30 am 05:30 Cloudy with Drizzle 47 8.3 46 7.8 97 97 S 7 11 29.87 1012 5 8 0.00 0.00
5:52 am 05:52 Cloudy with Light Rain 47 8.3 46 7.8 97 97 S 7 11 29.86 1011 6 10 0.00 0.00
6:52 am 06:52 Cloudy with Light Rain 47 8.3 46 7.8 97 97 S 5 7 29.86 1011 4 6 0.03 0.76
7:25 am 07:25 Cloudy with Light Rain 47 8.3 46 7.8 97 97 S 6 9 29.87 1012 4 6 0.04 1.02
7:52 am 07:52 Cloudy with Light Rain 47 8.3 46 7.8 97 97 S 6 9 29.86 1011 3 5 0.07 1.78
8:52 am 08:52 Cloudy with Light Rain 48 8.9 47 8.3 96 96 S 8 13 29.86 1011 4 6 0.04 1.02
8:58 am 08:58 Cloudy with Rain 48 8.9 47 8.3 96 96 S 6 9 29.85 1011 3 4 0.01 0.25
9:03 am 09:03 Cloudy with Rain 48 8.9 47 8.3 96 96 S 6 9 29.86 1011 2 2 0.03 0.76
9:09 am 09:09 Cloudy with Light Rain 48 8.9 47 8.3 96 96 S 6 9 29.86 1011 2 3 0.03 0.76
9:19 am 09:19 Cloudy with Light Rain 48 8.9 47 8.3 96 96 S 7 11 29.85 1011 3 5 0.04 1.02
9:27 am 09:27 Cloudy with Light Rain 48 8.9 47 8.3 96 96 S 7 11 29.85 1011 2 3 0.04 1.02
9:52 am 09:52 Cloudy with Light Rain 49 9.4 48 8.9 97 97 S 7 11 29.85 1011 2 2 0.06 1.52
10:52 am 10:52 Cloudy with Mist and Fog 50 10 49 9.4 96 96 S 6 9 29.84 1011 2 3 0.03 0.76
11:05 am 11:05 Cloudy with Mist and Fog 50 10 49 9.4 96 96 S 7 11 29.84 1011 4 6 0.00 0.00
11:19 am 11:19 Cloudy 51 10.6 49 9.4 92 92 S 7 11 29.83 1010 7 11 0.00 0.00
11:39 am 11:39 Cloudy with Drizzle 51 10.6 50 10 96 96 S 7 11 29.83 1010 7 11 0.00 0.00
11:52 am 11:52 Cloudy with Drizzle 51 10.6 50 10 96 96 S 8 13 29.83 1010 4 6 0.00 0.00
12:13 pm 12:13 Cloudy 53 11.7 51 10.6 93 93 S 8 13 29.81 1010 8 13 0.00 0.00
12:32 pm 12:32 Cloudy 53 11.7 50 10 89 89 S 6 9 29.81 1010 10 16 0.00 0.00
12:52 pm 12:52 Cloudy 53 11.7 50 10 89 89 S 7 11 29.80 1009 10 16 0.00 0.00
1:15 pm 13:15 Cloudy 52 11.1 49 9.4 89 89 S 7 11 29.79 1009 10 16 0.00 0.00
1:41 pm 13:41 Cloudy 53 11.7 50 10 89 89 S 6 9 29.79 1009 10 16 0.00 0.00
1:52 pm 13:52 Cloudy 53 11.7 50 10 89 89 S 6 9 29.78 1009 10 16 0.00 0.00
2:52 pm 14:52 Cloudy 54 12.2 49 9.4 83 83 SSE 3 6 29.78 1008 10 16 0.00 0.00
3:52 pm 15:52 Cloudy 54 12.2 49 9.4 83 83 SSE 3 6 29.79 1009 10 16 0.00 0.00
4:52 pm 16:52 Cloudy 54 12.2 49 9.4 83 83 S 3 6 29.80 1009 10 16 0.00 0.00
5:52 pm 17:52 Cloudy 53 11.7 50 10 89 89 S 6 9 29.81 1010 10 16 0.00 0.00
6:29 pm 18:29 Cloudy 53 11.7 50 10 89 89 Calm 29.83 1010 10 16 0.00 0.00
6:52 pm 18:52 Cloudy 54 12.2 50 10 87 87 Calm 29.84 1010 10 16 0.00 0.00
7:52 pm 19:52 Cloudy 50 10 49 9.4 96 96 Calm 29.84 1011 8 13 0.00 0.00
8:52 pm 20:52 Cloudy with Mist and Fog 52 11.1 50 10 93 93 NE 7 11 29.86 1011 5 8 0.00 0.00
9:12 pm 21:12 Cloudy with Mist and Fog 50 10 49 9.4 96 96 ENE 8 13 29.86 1011 4 6 0.00 0.00
9:14 pm 21:14 Cloudy with Mist and Fog 50 10 49 9.4 96 96 ENE 7 11 29.86 1011 5 8 0.00 0.00
9:52 pm 21:52 Cloudy with Mist and Fog 51 10.6 49 9.4 92 92 ENE 7 11 29.87 1012 5 8 0.00 0.00
10:46 pm 22:46 Cloudy with Mist and Fog 50 10 48 9 94 94 NNE 6 9 29.89 1012 4 6 0.00 0.00
10:52 pm 22:52 Cloudy with Mist and Fog 50 10 49 9.4 96 96 NE 6 9 29.88 1012 4 6 0.00 0.00
11:03 pm 23:03 Cloudy with Mist and Fog 50 10 49 9.4 96 96 NE 8 13 29.88 1012 3 4 0.00 0.00
11:10 pm 23:10 Cloudy with Mist and Fog 50 10 49 9.4 96 96 ENE 7 11 29.88 1012 2 3 0.00 0.00
11:32 pm 23:32 Cloudy with Mist and Fog 50 10 49 9.4 96 96 NE 6 9 29.87 1012 2 3 0.00 0.00
11:52 pm 23:52 Cloudy with Mist and Fog 50 10 49 9.4 96 96 ENE 5 7 29.87 1011 2 3 0.00 0.00

Powered by AerisWeather